STARLINK-32930 (63203 NORAD) Tracking and Keplerian Element Data

This shows tracking and keplerian element data for the satellite.

Feedback or suggestion? Click here.




ElementValue
Catalog63203
NameSTARLINK-32930
Epoch Orbit4493
Epoch Day354.20961835
Epoch Year2025
RAAN174.4392
Inclination43.0005
Eccentricity0.0001549
Argument of Perigee262.7678
Mean Anonmoly97.2998
Mean Motion15.27586971
Decay Rate0.0001794
L11 63203U 25048W 25354.20961835 .00017940 00000+0 65971-3 0 9997
L22 63203 43.0005 174.4392 0001549 262.7678 97.2998 15.27586971 44930



Live tracking and technical data element details for STARLINK-32930 (NORAD 63203). STARLINK-32930 can be tracked NOW for your location showing map with azimuth and elevation plus other details from your city location.







IsCatalogInMostPopularTable: catalog: 63203, numindb: 2
Update: records affected: 1



GetName: 63203 STARLINK-32930

Hit Count: updated at: Mon, 09 Feb 2026 07:41:27 GMT